This is the latest recevied weather packets stored in our database for station/object VE3VGJ. If no packets are shown the sender has not sent any weather packets the latest 10 day(s).
| Time | Temp. | Humidity | Pressure | Rain* | Wind** | Luminosity | Snow |
|---|---|---|---|---|---|---|---|
| 1778198523 | 8.33° C | 64% | 1010.5 hPa | 0 mm | - | 6 W/m² | - |
| 1778198219 | 8.89° C | 63% | 1010.3 hPa | 0 mm | - | 6 W/m² | - |
| 1778197917 | 8.89° C | 64% | 1010.1 hPa | 0 mm | - | 7 W/m² | - |
| 1778197614 | 8.89° C | 64% | 1010.4 hPa | 0 mm | - | 9 W/m² | - |
| 1778197310 | 8.89° C | 64% | 1010.2 hPa | 0 mm | - | 12 W/m² | - |
| 1778197007 | 8.89° C | 63% | 1010.3 hPa | 0 mm | - | 21 W/m² | - |
| 1778196706 | 8.89° C | 63% | 1010 hPa | 0 mm | - | 32 W/m² | - |
| 1778196402 | 8.89° C | 64% | 1010.1 hPa | 0 mm | - | 38 W/m² | - |
| 1778196099 | 8.89° C | 64% | 1010 hPa | 0 mm | - | 40 W/m² | - |
| 1778195795 | 8.89° C | 64% | 1010 hPa | 0 mm | - | 58 W/m² | - |
| 1778195493 | 8.89° C | 63% | 1010.2 hPa | 0 mm | - | 65 W/m² | - |
| 1778195189 | 8.89° C | 64% | 1010.2 hPa | 0 mm | - | 62 W/m² | - |
| 1778194887 | 8.89° C | 64% | 1010.3 hPa | 0 mm | - | 65 W/m² | - |
| 1778194586 | 9.44° C | 65% | 1010 hPa | 0 mm | - | 81 W/m² | - |
| 1778194283 | 9.44° C | 65% | 1010.1 hPa | 0 mm | - | 100 W/m² | - |
| 1778193978 | 9.44° C | 65% | 1010.4 hPa | 0 mm | - | 91 W/m² | - |
| 1778193676 | 9.44° C | 65% | 1009.9 hPa | 0 mm | - | 103 W/m² | - |
| 1778193372 | 9.44° C | 64% | 1010 hPa | 0 mm | - | 111 W/m² | - |
| 1778193069 | 9.44° C | 65% | 1009.9 hPa | 0 mm | - | 130 W/m² | - |
| 1778192766 | 8.89° C | 65% | 1010 hPa | 0 mm | - | 124 W/m² | - |
| 1778192462 | 8.89° C | 67% | 1009.9 hPa | 0 mm | - | 121 W/m² | - |
| 1778192158 | 8.89° C | 67% | 1009.9 hPa | 0 mm | - | 121 W/m² | - |
| 1778191855 | 9.44° C | 67% | 1010 hPa | 0 mm | - | 122 W/m² | - |
| 1778191553 | 9.44° C | 66% | 1010.4 hPa | 0 mm | - | 140 W/m² | - |
| 1778191250 | 10° C | 63% | 1010.2 hPa | 0 mm | - | 150 W/m² | - |
* Rain latest hour (hover to see other rain measurements)
** Current wind speed in m/s (hover to see current wind gust speed)